Regional Weather Roundup
Issued by NWS

Home | Current Version | Previous Version | Graphics & Text | Print | Product List | Glossary On
Versions: 1 2 3 4 5 6 7 8 9 10 11 12 13 14 15 16 17 18 19 20 21 22 23 24 25 26 27 28 29 30 31 32 33 34 35 36 37 38 39 40 41 42 43 44 45 46 47 48 49 50
000
ASUS43 KLMK 250202
RWRKY
KENTUCKY REGIONAL WEATHER ROUNDUP
NATIONAL WEATHER SERVICE LOUISVILLE KY
1000 PM EDT SUN JUL 24 2016

NOTE "FAIR" INDICATES FEW OR NO CLOUDS BELOW 12,000 FEET
WITH NO SIGNIFICANT WEATHER AND/OR OBSTRUCTIONS TO VISIBILITY.

KYZ001>023-026-027-061>063-070>075-250300-
WESTERN AND SOUTH CENTRAL KENTUCKY

CITY           SKY/WX    TMP DP  RH WIND       PRES   REMARKS
PADUCAH        CLEAR     84  77  79 S3        29.95R HX  94
HENDERSON      CLEAR     82  75  78 CALM      29.95R
OWENSBORO      PTCLDY    85  79  82 S5        29.97R HX  98
HOPKINSVILLE   PTCLDY    87  76  70 SE6       29.98S HX  96
BOWLING GREEN  CLEAR     86  76  71 S3        29.99S HX  96
GLASGOW        NOT AVBL
$$

KYZ024-025-028>034-038-045-046-053-250300-
NORTH CENTRAL KENTUCKY

CITY           SKY/WX    TMP DP  RH WIND       PRES   REMARKS
LOUISVILLE/SDF MOCLDY    88  74  63 SW6       29.97R HX  96
LOUISVILLE/LOU CLEAR     88  75  65 S5        29.98R HX  97
FORT KNOX      PTCLDY    82  77  85 CALM      29.98R
$$

KYZ035>037-039>044-047>052-055>060-089>105-250300-
NORTHEAST KENTUCKY

CITY           SKY/WX    TMP DP  RH WIND       PRES   REMARKS
LEXINGTON      CLEAR     83  74  74 SW5       30.02R
COVINGTON      PTCLDY    84  75  74 SW5       29.98S HX  92
FRANKFORT      CLEAR     81  75  82 CALM      29.99R
$$

KYZ054-064>069-076>088-106>120-250300-
SOUTHEAST KENTUCKY

CITY           SKY/WX    TMP DP  RH WIND       PRES   REMARKS
JACKSON        CLOUDY    83  75  77 CALM      30.05R HX  90
LONDON         PTCLDY    83  72  69 CALM      30.05R
SOMERSET       CLEAR     79  73  83 CALM      30.05R
MIDDLESBORO    CLOUDY    80  74  82 W3        30.07R
MONTICELLO     CLOUDY   N/A N/A N/A CALM      30.06R
$$





USA.gov is the U.S. government's official web portal to all federal, state and local government web resources and services.